Location: Charleston
(38.3500°N, 81.6330°W)
Time: 07:03:20
(UTC-04:00)

Daily predictions for brighter satellites

Satellite Brightness Start Highest point End
(mag) Time Altitude Azimuth Time Altitude Azimuth Time Altitude Azimuth
Cosmos 2360 Rocket 2.8 19:02:46 10° N 19:07:56 35° ENE 19:13:04 10° SE
Cosmos 1727 Rocket 4.3 19:02:27 10° N 19:08:32 45° ENE 19:14:33 10° SSE
Meteor 2-14 Rocket 4.5 19:03:23 10° S 19:09:28 82° E 19:15:34 10° N
Cosmos 1833 4.4 19:06:26 10° S 19:11:59 54° ESE 19:17:29 10° NNE
SL-8 R/B 3.7 19:07:41 10° SW 19:12:29 83° SE 19:17:21 10° ENE
Meteor 2-16 Rocket 4.4 19:07:04 10° S 19:13:08 74° E 19:19:15 10° N
Cosmos-2242 3.6 19:09:29 10° SSW 19:13:41 62° W 19:17:55 10° N
ISS -1.6 19:11:43 10° WNW 19:14:33 27° SW 19:17:22 10° SSE
Cosmos 2322 Rocket 2.3 19:09:53 10° NNW 19:15:32 82° WSW 19:21:08 10° SSE
Tiangong 1 2.8 19:13:47 10° W 19:16:06 25° SSW 19:18:23 10° SSE
Cosmos 1624 Rocket 4.1 19:13:48 10° NNW 19:19:02 85° WSW 19:24:17 10° SSE
MTI 4.0 19:17:15 10° N 19:20:28 76° WNW 19:23:39 10° SSW
GP-B 3.1 19:16:44 10° N 19:21:09 64° E 19:25:32 10° S
Cosmos 1315 Rocket 3.8 19:18:39 10° NNE 19:22:09 27° ENE 19:25:40 10° SE
Cosmos 2151 3.2 19:19:15 10° N 19:23:23 46° E 19:27:28 10° SSE
Meteor 2-1 Rocket 4.4 19:21:46 10° S 19:27:23 58° E 19:33:09 10° NNE
SL-08 R/B 4.5 19:21:46 10° S 19:27:56 85° E 19:34:06 10° N
GRACE-2 4.4 19:26:01 10° SSE 19:28:20 31° E 19:30:41 10° NNE
Thor Agena Rocket 4.3 19:25:36 10° NE 19:30:00 29° E 19:34:20 10° SSE
CZ-4C R/B 3.1 19:26:18 10° SSE 19:30:21 24° ESE 19:34:46 10° ENE
GRACE-1 4.2 19:28:39 10° SSE 19:31:03 36° E 19:33:29 10° NNE
SKYMED 2 3.5 19:27:41 10° NNE 19:32:03 80° ESE 19:36:23 10° S
EO 1 Del DPAF 3.5 19:28:54 10° N 19:32:45 74° WNW 19:36:34 10° SSW
FALCON 9 R/B 3.4 19:31:57 10° SSW 19:32:46 11° SSW 19:33:40 10° S
APEX 4.0 19:30:08 10° SSE 19:32:53 23° ESE 19:34:23 16° ENE
FENGYUN 3A 3.9 19:30:47 10° SE 19:35:55 47° ENE 19:41:05 10° N
Meteor 1-11 4.5 19:30:18 10° NNW 19:36:06 79° W 19:41:48 10° S
Cosmos 1743 Rocket 3.5 19:32:17 10° N 19:36:42 90° S 19:41:06 10° S
Cosmos 2322 3.9 19:32:47 10° NNW 19:38:22 50° ENE 19:43:52 10° SE
Delta 2 Rocket 3.4 19:35:03 10° WSW 19:38:43 50° S 19:41:02 18° ESE
Cosmos 158 Rocket 4.2 19:36:36 10° S 19:41:20 44° ESE 19:46:12 10° NNE
RESURS DK-1 2.4 19:37:59 10° NNW 19:42:03 53° ENE 19:46:05 10° SE
Cosmos 1842 Rocket 3.8 19:38:29 10° S 19:42:57 77° W 19:47:26 10° N
SJ-6B 4.1 19:45:27 19° ENE 19:45:27 19° ENE 19:48:00 10° NNE
Cosmos 2221 2.7 19:41:25 10° SSE 19:45:33 47° E 19:49:43 10° NNE
ALOS 2.3 19:42:01 10° SSE 19:46:36 59° ENE 19:51:11 10° N
Cosmos 2058 2.9 19:42:48 10° N 19:47:00 89° E 19:51:09 10° S
Atlas Centaur 2 3.1 19:49:52 10° WSW 19:54:07 33° S 19:58:05 15° SE
ASTRO E2 4.0 19:52:20 10° WSW 19:55:51 30° S 19:57:53 19° SE
Cosmos 921 Rocket 3.0 19:51:39 10° N 19:56:06 65° ENE 20:00:25 10° SSE
Cosmos 2219 Rocket 3.2 19:52:37 10° N 19:57:09 25° ENE 19:58:26 23° ENE
Resurs 01 Rocket 3.7 19:59:58 11° NE 19:59:58 11° NE 20:00:25 10° NNE
Cosmos 1500 Rocket 3.9 19:54:00 10° NNW 19:58:19 67° W 20:02:35 10° S
Cosmos 1703 3.8 19:54:51 10° NNW 19:58:44 59° W 20:02:33 10° S
SPOT 3 Rocket 4.0 19:58:55 10° S 20:04:02 64° WSW 20:09:14 10° NNW
Cosmos 1269 Rocket 4.1 20:00:27 10° S 20:05:33 54° ESE 20:10:42 10° NNE
Cosmos 1726 2.2 20:05:28 10° S 20:09:03 49° E 20:12:39 10° NNE
Cosmos 1535 Rocket 4.5 20:03:41 10° SSE 20:09:39 55° E 20:15:35 10° NNE
SL-16 R/B 4.4 20:05:38 10° NW 20:10:18 27° WSW 20:14:56 10° SSW
Meteor 2-10 4.4 20:07:07 10° SSE 20:11:43 37° E 20:16:22 10° NNE
Cosmos 1908 3.8 20:09:08 10° SSW 20:13:00 60° W 20:16:52 10° N
USA 267 3.4 20:09:11 21° ENE 20:13:24 51° SE 20:19:42 10° SSW
Cosmos 2333 4.4 20:08:26 10° NNW 20:14:01 51° ENE 20:16:56 27° SE
Cosmos 2237 4.1 20:10:09 10° NNW 20:15:55 83° ENE 20:21:38 10° SSE
Cosmos 2098 Rocket 3.1 20:15:00 10° S 20:19:08 79° E 20:24:30 10° N
H-2A R/B 2.6 20:19:22 31° SSE 20:21:04 71° ENE 20:24:59 10° N
Cosmos 44 2.9 20:17:52 10° SSW 20:22:15 90° WNW 20:24:23 30° NNE
Cosmos 1452 Rocket 4.1 20:19:28 10° NNW 20:24:37 58° WSW 20:29:45 10° S
Cosmos 2237 Rocket 3.5 20:23:45 10° N 20:27:16 23° NE 20:27:16 23° NE
Sich 1 3.5 20:25:34 10° N 20:28:51 42° NE 20:28:51 42° NE
SL-24 R/B - RUBIN 2 4.5 20:29:31 10° NW 20:34:06 48° WSW 20:37:00 19° S
Cosmos 2227 Rocket 4.2 20:29:34 10° SSE 20:30:08 13° SSE 20:30:08 13° SSE
FREGAT/IRIS 4.2 20:37:46 31° NW 20:37:46 31° NW 20:39:39 10° NNW
Cosmos 1805 Rocket 3.5 20:32:24 10° N 20:36:48 82° W 20:39:28 23° S
Meteor 2-2 Rocket 4.3 20:31:42 10° SSE 20:39:43 30° NE 20:42:41 10° NNE
SL-16 R/B 4.4 20:35:08 10° NNE 20:35:24 11° NNE 20:35:24 11° NNE
Aureole 2 Rocket 4.3 20:34:22 10° N 20:36:11 25° N 20:36:11 25° N
Cosmos 1821 Rocket 4.1 20:34:43 10° SSW 20:40:50 73° W 20:47:05 10° N
Cosmos 44 Rocket 3.6 20:36:59 10° SW 20:41:38 61° WNW 20:43:51 30° NNE
Cosmos 1666 Rocket 4.2 20:41:11 10° N 20:44:09 42° N 20:44:09 42° N
Cosmos 1934 Rocket 4.0 20:40:04 10° S 20:46:25 88° W 20:52:50 10° N
DELTA 2 R/B (1) 3.5 20:41:56 10° WNW 20:47:30 72° SSW 20:48:16 62° SSE
USA 234 4.4 20:46:38 25° NE 20:47:41 26° NNE 20:52:54 10° NNW
Cosmos 2360 Rocket 4.0 20:46:54 10° NW 20:51:48 31° WSW 20:56:40 10° SSW
COSMOS 2428 2.8 20:46:30 10° NNW 20:52:11 74° WSW 20:54:29 37° S
Cosmos 1633 Rocket 4.5 20:49:28 10° N 20:51:39 29° N 20:51:39 29° N
Cosmos 2333 Rocket 2.4 20:49:56 10° NNW 20:54:58 57° NNE 20:54:58 57° NNE
Cosmos 2219 3.8 20:53:48 10° SW 20:59:26 57° WNW 21:05:06 10° NNE
Envisat 4.4 21:12:32 29° N 21:12:32 29° N 21:15:01 10° N
Cosmos 2123 Rocket 4.1 21:05:23 10° NNW 21:11:36 72° W 21:14:34 33° S
Cosmos 1605 Rocket 4.0 21:08:55 10° S 21:15:02 77° W 21:21:09 10° N
CZ-4C R/B 3.1 21:13:28 10° WSW 21:18:25 43° NW 21:20:08 34° N
MOS 1-B Rocket 4.0 21:19:10 70° WSW 21:19:13 71° WSW 21:25:09 10° NNW
BREEZE M DEB (TANK) 4.5 21:14:32 10° WNW 21:25:47 53° N 21:25:47 53° N
Resurs 01 Rocket 4.2 21:37:34 14° NNW 21:37:34 14° NNW 21:38:18 10° NNW
Cosmos 2219 Rocket 3.3 21:35:59 10° NW 21:40:12 40° WNW 21:40:12 40° WNW
Atlas Centaur 2 4.2 21:38:22 10° WSW 21:40:43 20° SW 21:40:43 20° SW
USA 267 4.0 21:56:35 46° NW 21:56:35 46° NW 22:02:29 10° WSW
Cosmos 2237 Rocket 4.3 22:07:09 10° NW 22:09:07 21° NW 22:09:07 21° NW
